Home   Weather   Mildura   Past weeks
Flag for Australia

Past Weather in Mildura, Victoria, Australia — Yesterday and Last 2 Weeks

Now
59 °F

Refreshingly cool.


Feels Like: 58 °F
Forecast: 93 / 63 °F
Wind: 8 mph from South

Location: Mildura Airport

Current Time: Feb 22, 2019 at 9:35:43 am

Latest Report: Feb 22, 2019 at 8:00 am


Visibility: N/A

Pressure: 30.13 "Hg

Humidity: 60%

Dew Point: 45 °F

Location of MilduraLocation

Past Weather in Mildura — Graph

°F

Mildura Temperature Yesterday

Maximum temperature yesterday: 83 °F (at 6:00 pm)
Minimum temperature yesterday: 57 °F (at 7:00 am)
Average temperature yesterday: 71 °F

High & Low Weather Summary for the Past Weeks

 TemperatureHumidityPressure
High98 °F (Feb 17, 3:00 pm)89% (Feb 7, 8:00 am)30.19 "Hg (Feb 7, 8:00 am)
Low47 °F (Feb 13, 7:00 am)8% (Feb 17, 6:00 pm)29.47 "Hg (Feb 12, 5:00 am)
Average72 °F38%29.88 "Hg
* Reported Feb 7 8:00 am — Feb 22 8:00 am, Mildura. Weather by CustomWeather, © 2019

Note: Actual official high and low records may vary slightly from our data, if they occured in-between our weather recording intervals... More about our weather records

Advertising

Mildura Weather History for the Previous 24 Hours

Scroll right to see more
 ConditionsComfort  
Time TempWeatherWind HumidityBarometerVisibility
8:00 am
Fri, Feb 22
59 °FRefreshingly cool.8 mph60%30.13 "HgN/A
7:00 am58 °FRefreshingly cool.7 mph59%30.11 "HgN/A
6:00 am59 °FRefreshingly cool.6 mph56%30.09 "HgN/A
5:00 am60 °FRefreshingly cool.7 mph51%30.09 "HgN/A
4:00 am62 °FRefreshingly cool.7 mph47%30.08 "HgN/A
3:00 am63 °FMild.7 mph43%30.07 "HgN/A
2:00 am65 °FMild.7 mph38%30.07 "HgN/A
1:00 am67 °FMild.6 mph35%30.07 "HgN/A
12:00 am71 °FMild.6 mph30%30.07 "HgN/A
11:00 pm
Thu, Feb 21
73 °FMild.6 mph28%30.06 "HgN/A
10:00 pm73 °FMild.5 mph27%30.05 "HgN/A
9:00 pm77 °FPleasantly warm.7 mph23%30.04 "HgN/A
8:00 pm81 °FPleasantly warm.9 mph21%30.02 "HgN/A
7:00 pm83 °FPleasantly warm.12 mph18%30.01 "HgN/A
6:00 pm83 °FPleasantly warm.13 mph18%30.02 "HgN/A
5:00 pm83 °FPleasantly warm.13 mph19%30.02 "HgN/A
4:00 pm81 °FPleasantly warm.10 mph21%30.03 "HgN/A
3:00 pm80 °FPleasantly warm.12 mph24%30.06 "HgN/A
2:00 pm77 °FPleasantly warm.13 mph27%30.09 "HgN/A
1:00 pm75 °FMild.12 mph32%30.10 "HgN/A
12:00 pm72 °FMild.10 mph36%30.13 "HgN/A
11:00 am69 °FMild.12 mph42%30.13 "HgN/A
10:00 am65 °FMild.13 mph51%30.12 "HgN/A
9:00 am62 °FSunny.10 mph60%30.11 "Hg25 mi
Weather by CustomWeather, © 2019

See weather overview